Weather History for KFUL - August, 2013

Change the Weather History Date:

Friday, August 30, 2013

  Actual Average Record
Temperature  
Mean Temperature 89 °F 76 °F  
Max Temperature 98 °F 86 °F 103 °F (1998)
Min Temperature 79 °F 65 °F 57 °F (2010)
Degree Days  
Heating Degree Days 0 0  
Month to date heating degree days 22 0  
Since 1 June heating degree days 22 2  
Since 1 July heating degree days 22 0  
Cooling Degree Days 24 10  
Month to date cooling degree days 347 312  
Year to date cooling degree days 1346 854  
Since 1 June cooling degree days 991 731  
Growing Degree Days 38 (Base 50)    
Moisture  
Dew Point 63 °F    
Average Humidity 45    
Maximum Humidity 54    
Minimum Humidity 35    
Precipitation  
Precipitation 0.00 in 0.00 in 0.00 in (2015)
Month to date precipitation 0.00 0.05  
Year to date precipitation 2.53 9.74  
Since 1 July precipitation T  
Snow  
Snow 0.00 in - - ()
Month to date snowfall 0.0  
Year to date snowfall 0.0  
Snow Depth 0.00 in    
Sea Level Pressure  
Sea Level Pressure 29.92 in    
Wind  
Wind Speed 4 mph (SSW)    
Max Wind Speed 14 mph    
Max Gust Speed 21 mph    
Visibility 10 miles    
Events      
T = Trace of Precipitation, MM = Missing Value Source: NWS Daily Summary

Daily Weather History Graph

Daily Weather History Graph

Search for Another Location

Airport or City:

Trip Planner

Search our weather history database for the weather conditions in past years. The results will help you decide how hot, cold, wet, or windy it might be!

Date:

Astronomy

Aug. 30, 2013 Rise Set
Actual Time 6:24 AM PDT 7:19 PM PDT
Civil Twilight 5:58 AM PDT 7:45 PM PDT
Nautical Twilight 5:28 AM PDT 8:15 PM PDT
Astronomical Twilight 4:57 AM PDT 8:46 PM PDT
Moon 1:15 AM PDT (8/30) 3:30 PM PDT (8/30)
Length of Visible Light 13h 46m
Length of Day
12h 55m
Waning Crescent, 28% of the Moon is Illuminated
Aug 30
Waning Crescent
Sep 5
New
Sep 12
First Quarter
Sep 19
Full
Sep 26
Last Quarter

Hourly Weather History & Observations

Time (PDT) Temp. Heat Index Dew Point Humidity Pressure Visibility Wind Dir Wind Speed Gust Speed Precip Events Conditions
12:53 AM 82.0 °F 81.7 °F 57.0 °F 42% 29.91 in 10.0 mi Calm Calm - N/A   Clear
1:53 AM 81.0 °F 81.0 °F 57.0 °F 44% 29.89 in 10.0 mi Calm Calm - N/A   Clear
2:53 AM 80.1 °F 80.7 °F 59.0 °F 48% 29.88 in 10.0 mi Calm Calm - N/A   Clear
3:53 AM 80.1 °F 81.1 °F 61.0 °F 52% 29.88 in 10.0 mi Calm Calm - N/A   Clear
4:53 AM 79.0 °F - 60.1 °F 52% 29.88 in 10.0 mi Calm Calm - N/A   Clear
5:53 AM 80.1 °F 81.1 °F 61.0 °F 52% 29.89 in 9.0 mi Calm Calm - N/A   Clear
6:53 AM 80.1 °F 81.1 °F 61.0 °F 52% 29.92 in 10.0 mi Calm Calm - N/A   Clear
7:53 AM 82.0 °F 83.0 °F 62.1 °F 51% 29.94 in 10.0 mi SSE 3.5 mph - N/A   Clear
8:53 AM 87.1 °F 86.5 °F 59.0 °F 39% 29.95 in 10.0 mi Calm Calm - N/A   Clear
9:53 AM 90.0 °F 89.1 °F 59.0 °F 35% 29.96 in 10.0 mi Calm Calm - N/A   Clear
10:53 AM 93.9 °F 95.2 °F 63.0 °F 36% 29.95 in 10.0 mi SSW 8.1 mph - N/A   Partly Cloudy
11:53 AM 96.1 °F 98.3 °F 64.0 °F 35% 29.94 in 10.0 mi South 8.1 mph - N/A   Clear
12:53 PM 95.0 °F 97.0 °F 64.0 °F 36% 29.94 in 10.0 mi SSW 8.1 mph 17.3 mph N/A   Clear
1:53 PM 96.1 °F 99.9 °F 66.9 °F 38% 29.92 in 10.0 mi SSW 13.8 mph 19.6 mph N/A   Clear
2:53 PM 93.9 °F 97.5 °F 66.9 °F 41% 29.91 in 10.0 mi SW 10.4 mph - N/A   Clear
3:53 PM 93.9 °F 97.5 °F 66.9 °F 41% 29.90 in 10.0 mi SSW 10.4 mph - N/A   Clear
4:53 PM 93.0 °F 97.4 °F 68.0 °F 44% 29.90 in 10.0 mi SSW 8.1 mph - N/A   Clear
5:53 PM 91.9 °F 96.9 °F 69.1 °F 47% 29.90 in 10.0 mi SSW 9.2 mph - N/A   Clear
6:53 PM 91.0 °F 95.2 °F 68.0 °F 47% 29.90 in 10.0 mi Calm Calm - N/A   Clear
7:53 PM 88.0 °F 90.3 °F 66.0 °F 48% 29.91 in 10.0 mi Calm Calm - N/A   Clear
8:53 PM 84.0 °F 85.8 °F 64.9 °F 53% 29.93 in 10.0 mi Calm Calm - N/A   Clear
9:53 PM 82.9 °F 84.6 °F 64.9 °F 54% 29.94 in 10.0 mi Calm Calm - N/A   Clear
10:53 PM 82.9 °F 84.6 °F 64.9 °F 54% 29.94 in 10.0 mi South 4.6 mph - N/A   Clear
11:53 PM 82.0 °F 82.7 °F 61.0 °F 49% 29.94 in 10.0 mi Calm Calm - N/A   Clear